Precipitable_Water
1.86 1.85 1.91 1.94 1.92 1.93 1.91 1.89 1.88 1.86 1.85 1.79 1.73 1.73 1.74 1.74 1.70 1.67 1.63 1.58 1.51 1.45 1.45 1.44 1.42 1.41 1.40 1.37 1.36 1.40 1.50 1.58 1.64 1.62 1.60 1.59 1.59 1.56 1.55 1.53 1.58 1.67 1.73 1.72 1.74 1.75 1.76 1.80 1.80 1.81 1.82 1.83 1.82 1.82 1.77 1.73 1.77 1.78 1.72 1.69 1.69 1.70 1.70 1.71 1.68 1.66 1.69 1.69 1.68 1.68 1.70 1.73 1.74 1.75 1.77 1.75 1.75 1.80 1.83 1.83 1.84 1.83 1.85 1.87 1.82
1.77 1.87 1.89 1.88 1.89 1.90 1.88 1.85 1.84 1.84 1.85 1.78 1.73 1.71 1.70 1.67 1.63 1.58 1.54 1.47 1.44 1.43 1.44 1.43 1.43 1.43 1.41 1.39 1.40 1.48 1.58 1.64 1.67 1.66 1.63 1.63 1.63 1.61 1.59 1.64 1.70 1.73 1.75 1.77 1.79 1.79 1.80 1.80 1.86 1.85 1.84 1.87 1.85 1.83 1.83 1.84 1.81 1.77 1.77 1.78 1.78 1.75 1.72 1.72 1.74 1.75 1.74 1.74 1.71 1.71 1.73 1.73 1.74 1.75 1.77 1.79 1.80 1.82 1.81 1.82 1.83 1.81 1.80 1.79 1.82
1.85 1.86 1.88 1.86 1.88 1.88 1.85 1.81 1.80 1.81 1.81 1.76 1.72 1.70 1.64 1.57 1.54 1.50 1.45 1.42 1.41 1.42 1.42 1.43 1.44 1.44 1.43 1.42 1.47 1.58 1.66 1.70 1.71 1.72 1.70 1.69 1.69 1.68 1.68 1.73 1.76 1.77 1.83 1.83 1.79 1.78 1.79 1.85 1.89 1.89 1.88 1.88 1.86 1.85 1.86 1.87 1.85 1.83 1.79 1.77 1.77 1.78 1.76 1.77 1.80 1.78 1.79 1.78 1.78 1.78 1.78 1.80 1.79 1.77 1.78 1.77 1.77 1.80 1.85 1.86 1.83 1.80 1.77 1.73 1.70
1.80 1.84 1.87 1.86 1.86 1.86 1.82 1.78 1.77 1.78 1.77 1.74 1.69 1.64 1.56 1.49 1.46 1.45 1.43 1.43 1.43 1.45 1.45 1.47 1.47 1.47 1.47 1.50 1.58 1.65 1.71 1.74 1.76 1.75 1.74 1.72 1.70 1.65 1.69 1.76 1.77 1.77 1.83 1.78 1.79 1.81 1.83 1.84 1.85 1.88 1.85 1.83 1.84 1.84 1.83 1.81 1.80 1.77 1.76 1.76 1.76 1.79 1.77 1.77 1.76 1.75 1.80 1.77 1.76 1.75 1.76 1.79 1.78 1.76 1.75 1.75 1.78 1.81 1.83 1.82 1.80 1.75 1.72 1.66 1.63
1.82 1.86 1.86 1.85 1.84 1.84 1.80 1.76 1.76 1.77 1.74 1.70 1.60 1.52 1.47 1.47 1.47 1.46 1.45 1.46 1.48 1.49 1.51 1.51 1.52 1.53 1.55 1.59 1.68 1.72 1.76 1.78 1.78 1.78 1.77 1.76 1.73 1.70 1.72 1.78 1.78 1.78 1.79 1.82 1.80 1.82 1.84 1.86 1.85 1.83 1.84 1.85 1.83 1.81 1.77 1.76 1.75 1.74 1.75 1.73 1.73 1.73 1.77 1.74 1.77 1.81 1.83 1.82 1.79 1.74 1.72 1.74 1.74 1.76 1.79 1.79 1.81 1.81 1.83 1.82 1.76 1.73 1.65 1.60 1.60
1.82 1.85 1.84 1.82 1.81 1.82 1.78 1.76 1.76 1.74 1.72 1.70 1.62 1.57 1.56 1.52 1.49 1.46 1.47 1.50 1.54 1.54 1.54 1.54 1.55 1.57 1.59 1.65 1.74 1.79 1.80 1.80 1.80 1.81 1.80 1.78 1.75 1.74 1.75 1.76 1.78 1.79 1.79 1.78 1.78 1.80 1.83 1.84 1.84 1.81 1.78 1.78 1.76 1.70 1.69 1.67 1.66 1.67 1.70 1.74 1.75 1.75 1.77 1.78 1.77 1.80 1.82 1.85 1.82 1.77 1.74 1.75 1.75 1.77 1.79 1.81 1.78 1.76 1.75 1.71 1.73 1.77 1.72 1.67 1.68
1.82 1.81 1.78 1.77 1.78 1.78 1.75 1.74 1.72 1.70 1.72 1.71 1.69 1.66 1.63 1.54 1.47 1.47 1.51 1.55 1.55 1.55 1.55 1.56 1.57 1.58 1.62 1.67 1.77 1.78 1.80 1.80 1.80 1.78 1.80 1.82 1.80 1.78 1.79 1.79 1.81 1.82 1.80 1.78 1.77 1.79 1.84 1.86 1.83 1.78 1.75 1.73 1.68 1.64 1.59 1.55 1.55 1.60 1.67 1.72 1.78 1.80 1.80 1.76 1.75 1.79 1.84 1.84 1.78 1.74 1.73 1.73 1.75 1.77 1.80 1.81 1.78 1.84 1.83 1.77 1.76 1.74 1.70 1.65 1.60
1.82 1.79 1.77 1.74 1.75 1.75 1.72 1.68 1.66 1.66 1.66 1.69 1.71 1.67 1.61 1.51 1.49 1.52 1.55 1.57 1.55 1.56 1.59 1.61 1.60 1.60 1.63 1.69 1.76 1.79 1.79 1.80 1.78 1.78 1.81 1.86 1.82 1.80 1.83 1.84 1.86 1.83 1.80 1.78 1.80 1.83 1.85 1.86 1.88 1.83 1.76 1.72 1.67 1.61 1.53 1.47 1.49 1.56 1.64 1.71 1.72 1.75 1.78 1.81 1.82 1.85 1.89 1.84 1.76 1.73 1.72 1.72 1.73 1.76 1.80 1.81 1.86 1.88 1.85 1.78 1.74 1.69 1.66 1.60 1.53
1.67 1.73 1.75 1.73 1.72 1.70 1.65 1.61 1.57 1.57 1.62 1.67 1.69 1.65 1.54 1.49 1.52 1.53 1.56 1.56 1.58 1.62 1.64 1.64 1.63 1.63 1.67 1.74 1.77 1.79 1.80 1.79 1.77 1.79 1.82 1.85 1.85 1.80 1.82 1.83 1.85 1.82 1.80 1.80 1.82 1.83 1.84 1.85 1.86 1.83 1.79 1.75 1.69 1.64 1.61 1.59 1.55 1.53 1.60 1.69 1.77 1.83 1.85 1.83 1.85 1.86 1.84 1.81 1.77 1.72 1.71 1.72 1.75 1.80 1.84 1.85 1.81 1.81 1.76 1.71 1.69 1.59 1.52 1.45 1.42
1.58 1.64 1.68 1.69 1.65 1.61 1.57 1.54 1.52 1.56 1.64 1.71 1.68 1.54 1.43 1.48 1.52 1.57 1.60 1.63 1.67 1.68 1.67 1.66 1.67 1.73 1.79 1.80 1.79 1.80 1.80 1.80 1.79 1.79 1.80 1.82 1.84 1.81 1.81 1.81 1.82 1.85 1.85 1.86 1.86 1.86 1.84 1.85 1.85 1.82 1.76 1.69 1.64 1.63 1.65 1.73 1.78 1.73 1.75 1.85 1.87 1.87 1.85 1.80 1.82 1.85 1.84 1.82 1.79 1.74 1.74 1.77 1.82 1.83 1.84 1.82 1.77 1.67 1.60 1.53 1.44 1.41 1.39 1.37 1.39
1.54 1.57 1.62 1.62 1.58 1.55 1.52 1.52 1.55 1.63 1.70 1.65 1.51 1.41 1.47 1.57 1.63 1.66 1.69 1.72 1.71 1.71 1.74 1.76 1.77 1.78 1.79 1.78 1.79 1.80 1.80 1.79 1.79 1.78 1.78 1.80 1.83 1.83 1.80 1.79 1.81 1.83 1.84 1.84 1.84 1.82 1.82 1.83 1.84 1.84 1.77 1.66 1.60 1.60 1.66 1.77 1.83 1.86 1.88 1.85 1.87 1.87 1.88 1.86 1.83 1.83 1.85 1.85 1.82 1.78 1.79 1.82 1.79 1.75 1.78 1.74 1.68 1.61 1.52 1.43 1.36 1.35 1.38 1.43 1.45
1.50 1.54 1.57 1.58 1.55 1.51 1.52 1.57 1.61 1.62 1.55 1.45 1.38 1.45 1.60 1.70 1.75 1.74 1.75 1.77 1.79 1.79 1.75 1.75 1.76 1.78 1.78 1.79 1.76 1.78 1.78 1.78 1.76 1.75 1.75 1.77 1.80 1.81 1.80 1.82 1.81 1.80 1.81 1.82 1.83 1.84 1.85 1.85 1.86 1.83 1.72 1.64 1.59 1.58 1.70 1.79 1.83 1.86 1.89 1.87 1.87 1.85 1.84 1.86 1.85 1.83 1.84 1.85 1.81 1.77 1.77 1.77 1.75 1.74 1.72 1.68 1.58 1.50 1.42 1.37 1.37 1.41 1.44 1.45 1.46
1.49 1.51 1.57 1.58 1.53 1.55 1.57 1.53 1.48 1.43 1.39 1.38 1.44 1.58 1.71 1.77 1.79 1.77 1.77 1.78 1.78 1.78 1.77 1.78 1.80 1.81 1.79 1.76 1.77 1.79 1.78 1.76 1.75 1.73 1.73 1.75 1.79 1.83 1.85 1.84 1.81 1.79 1.80 1.82 1.82 1.82 1.82 1.83 1.83 1.77 1.70 1.65 1.60 1.61 1.74 1.80 1.84 1.87 1.90 1.93 1.92 1.91 1.87 1.88 1.86 1.84 1.82 1.81 1.77 1.74 1.72 1.73 1.73 1.70 1.67 1.60 1.51 1.45 1.40 1.41 1.44 1.46 1.47 1.50 1.52
1.43 1.49 1.54 1.55 1.55 1.53 1.46 1.41 1.36 1.35 1.38 1.48 1.59 1.69 1.77 1.80 1.77 1.77 1.78 1.79 1.80 1.78 1.77 1.78 1.78 1.77 1.77 1.76 1.77 1.76 1.74 1.73 1.74 1.76 1.77 1.77 1.78 1.78 1.80 1.80 1.77 1.76 1.77 1.78 1.78 1.78 1.77 1.80 1.82 1.78 1.71 1.63 1.60 1.64 1.74 1.82 1.85 1.88 1.90 1.92 1.95 1.94 1.91 1.89 1.88 1.85 1.82 1.78 1.73 1.71 1.71 1.71 1.68 1.66 1.64 1.57 1.49 1.44 1.43 1.46 1.48 1.49 1.51 1.53 1.53
1.38 1.42 1.46 1.48 1.45 1.40 1.34 1.32 1.34 1.42 1.54 1.66 1.70 1.73 1.76 1.78 1.78 1.79 1.78 1.78 1.77 1.77 1.77 1.76 1.76 1.75 1.72 1.71 1.71 1.72 1.71 1.71 1.72 1.72 1.74 1.75 1.75 1.77 1.79 1.79 1.76 1.74 1.76 1.78 1.78 1.78 1.77 1.81 1.81 1.73 1.59 1.53 1.53 1.57 1.69 1.80 1.86 1.90 1.91 1.91 1.91 1.91 1.90 1.89 1.88 1.85 1.80 1.75 1.72 1.72 1.70 1.69 1.68 1.66 1.64 1.57 1.49 1.46 1.46 1.48 1.51 1.54 1.55 1.56 1.56
1.41 1.37 1.38 1.31 1.27 1.31 1.36 1.41 1.47 1.58 1.69 1.76 1.75 1.74 1.75 1.77 1.80 1.79 1.78 1.77 1.76 1.75 1.75 1.74 1.72 1.70 1.68 1.67 1.67 1.67 1.69 1.70 1.70 1.68 1.69 1.69 1.68 1.70 1.76 1.81 1.77 1.75 1.77 1.80 1.80 1.79 1.79 1.79 1.75 1.65 1.52 1.46 1.46 1.50 1.63 1.75 1.81 1.87 1.90 1.88 1.88 1.88 1.89 1.88 1.86 1.84 1.80 1.75 1.74 1.75 1.73 1.71 1.69 1.67 1.63 1.57 1.51 1.49 1.48 1.50 1.53 1.57 1.58 1.59 1.60
1.38 1.29 1.18 1.20 1.30 1.38 1.45 1.51 1.56 1.70 1.78 1.79 1.75 1.73 1.76 1.78 1.77 1.78 1.76 1.74 1.73 1.74 1.71 1.70 1.69 1.67 1.64 1.62 1.63 1.66 1.68 1.67 1.66 1.66 1.68 1.70 1.75 1.78 1.79 1.77 1.72 1.71 1.75 1.78 1.79 1.79 1.80 1.80 1.77 1.64 1.51 1.43 1.42 1.48 1.59 1.67 1.74 1.82 1.88 1.89 1.88 1.89 1.86 1.85 1.83 1.80 1.78 1.75 1.73 1.72 1.71 1.70 1.67 1.63 1.60 1.57 1.53 1.51 1.51 1.52 1.54 1.58 1.61 1.65 1.66
1.27 1.23 1.21 1.28 1.35 1.41 1.46 1.50 1.58 1.68 1.76 1.77 1.76 1.75 1.76 1.77 1.76 1.76 1.73 1.71 1.72 1.71 1.69 1.69 1.67 1.64 1.61 1.61 1.64 1.66 1.65 1.63 1.62 1.62 1.64 1.67 1.71 1.77 1.78 1.76 1.72 1.71 1.75 1.78 1.79 1.78 1.78 1.78 1.74 1.66 1.56 1.47 1.45 1.48 1.58 1.67 1.72 1.80 1.87 1.89 1.86 1.86 1.86 1.84 1.79 1.78 1.76 1.75 1.73 1.73 1.72 1.71 1.66 1.61 1.59 1.58 1.56 1.53 1.52 1.53 1.57 1.61 1.65 1.69 1.70
1.28 1.28 1.28 1.29 1.33 1.39 1.43 1.48 1.54 1.62 1.70 1.74 1.74 1.74 1.76 1.76 1.75 1.72 1.70 1.70 1.71 1.70 1.69 1.67 1.62 1.60 1.64 1.66 1.64 1.60 1.58 1.59 1.57 1.57 1.58 1.62 1.70 1.77 1.76 1.71 1.70 1.71 1.73 1.76 1.78 1.78 1.78 1.78 1.76 1.72 1.64 1.55 1.50 1.53 1.59 1.66 1.74 1.80 1.84 1.84 1.84 1.84 1.83 1.82 1.82 1.79 1.73 1.69 1.70 1.71 1.74 1.73 1.68 1.62 1.61 1.60 1.58 1.56 1.55 1.56 1.60 1.64 1.69 1.71 1.73
1.29 1.28 1.29 1.33 1.36 1.37 1.42 1.48 1.51 1.59 1.66 1.70 1.70 1.72 1.74 1.74 1.73 1.71 1.70 1.70 1.70 1.68 1.65 1.60 1.58 1.62 1.63 1.58 1.57 1.58 1.57 1.58 1.58 1.58 1.57 1.59 1.66 1.73 1.76 1.72 1.70 1.66 1.66 1.70 1.72 1.74 1.77 1.77 1.75 1.72 1.66 1.61 1.58 1.57 1.59 1.64 1.70 1.79 1.83 1.83 1.76 1.69 1.64 1.64 1.63 1.65 1.68 1.69 1.71 1.71 1.72 1.73 1.70 1.67 1.62 1.60 1.60 1.59 1.59 1.61 1.63 1.68 1.72 1.73 1.73
1.28 1.30 1.31 1.35 1.37 1.37 1.40 1.45 1.51 1.55 1.61 1.65 1.66 1.68 1.73 1.74 1.73 1.70 1.70 1.70 1.68 1.65 1.60 1.58 1.62 1.69 1.71 1.65 1.58 1.55 1.56 1.58 1.57 1.57 1.57 1.57 1.60 1.64 1.68 1.68 1.65 1.62 1.61 1.63 1.66 1.68 1.69 1.69 1.69 1.68 1.67 1.66 1.68 1.68 1.64 1.65 1.71 1.78 1.84 1.83 1.75 1.63 1.54 1.46 1.44 1.46 1.49 1.53 1.59 1.65 1.69 1.70 1.70 1.71 1.70 1.65 1.62 1.61 1.62 1.64 1.68 1.70 1.71 1.73 1.71
1.27 1.31 1.36 1.38 1.37 1.37 1.33 1.39 1.47 1.50 1.55 1.57 1.60 1.64 1.71 1.71 1.70 1.71 1.72 1.68 1.65 1.61 1.57 1.62 1.71 1.75 1.77 1.73 1.73 1.70 1.63 1.62 1.64 1.64 1.63 1.64 1.62 1.62 1.61 1.59 1.57 1.55 1.54 1.59 1.65 1.67 1.70 1.69 1.66 1.64 1.66 1.70 1.70 1.71 1.73 1.73 1.73 1.77 1.79 1.78 1.73 1.68 1.57 1.41 1.29 1.30 1.33 1.38 1.43 1.46 1.52 1.60 1.66 1.68 1.69 1.69 1.67 1.64 1.64 1.66 1.69 1.69 1.70 1.68 1.67
1.28 1.33 1.38 1.41 1.40 1.38 1.31 1.30 1.40 1.44 1.46 1.47 1.49 1.56 1.64 1.68 1.68 1.69 1.69 1.63 1.59 1.55 1.61 1.74 1.77 1.78 1.75 1.73 1.74 1.75 1.72 1.69 1.67 1.66 1.65 1.66 1.65 1.61 1.58 1.55 1.54 1.53 1.53 1.59 1.69 1.72 1.74 1.78 1.81 1.81 1.80 1.80 1.79 1.81 1.80 1.77 1.77 1.82 1.83 1.78 1.70 1.61 1.52 1.38 1.21 1.19 1.21 1.26 1.31 1.37 1.39 1.42 1.48 1.55 1.61 1.65 1.67 1.68 1.68 1.65 1.65 1.66 1.65 1.66 1.66
1.29 1.34 1.40 1.45 1.42 1.35 1.34 1.35 1.37 1.41 1.39 1.40 1.41 1.47 1.56 1.66 1.66 1.66 1.63 1.63 1.62 1.60 1.70 1.79 1.77 1.74 1.74 1.71 1.71 1.73 1.70 1.70 1.74 1.72 1.71 1.71 1.72 1.70 1.65 1.62 1.59 1.56 1.59 1.67 1.74 1.81 1.83 1.87 1.90 1.88 1.87 1.87 1.86 1.84 1.85 1.86 1.86 1.85 1.84 1.80 1.72 1.63 1.52 1.38 1.18 1.12 1.13 1.19 1.24 1.27 1.26 1.28 1.32 1.37 1.45 1.52 1.57 1.59 1.62 1.61 1.61 1.62 1.65 1.66 1.67
1.32 1.40 1.47 1.42 1.41 1.37 1.43 1.47 1.45 1.43 1.36 1.34 1.34 1.39 1.52 1.63 1.64 1.62 1.65 1.71 1.69 1.70 1.77 1.77 1.71 1.72 1.74 1.73 1.71 1.72 1.74 1.76 1.77 1.75 1.73 1.76 1.77 1.75 1.73 1.73 1.70 1.68 1.72 1.70 1.75 1.80 1.82 1.83 1.86 1.88 1.85 1.84 1.80 1.79 1.82 1.83 1.85 1.81 1.81 1.84 1.76 1.68 1.57 1.40 1.23 1.16 1.15 1.16 1.16 1.18 1.20 1.21 1.23 1.28 1.33 1.39 1.45 1.49 1.51 1.54 1.56 1.57 1.60 1.62 1.64
1.39 1.38 1.46 1.44 1.46 1.48 1.43 1.48 1.48 1.45 1.37 1.30 1.32 1.39 1.51 1.58 1.58 1.61 1.66 1.73 1.70 1.71 1.76 1.71 1.69 1.71 1.75 1.74 1.75 1.77 1.78 1.78 1.77 1.75 1.76 1.77 1.75 1.74 1.79 1.84 1.81 1.76 1.79 1.77 1.83 1.78 1.75 1.78 1.80 1.80 1.80 1.81 1.77 1.77 1.78 1.80 1.81 1.82 1.78 1.77 1.73 1.70 1.66 1.53 1.32 1.26 1.24 1.26 1.30 1.27 1.24 1.22 1.21 1.24 1.27 1.31 1.36 1.41 1.45 1.48 1.51 1.53 1.57 1.60 1.60
1.32 1.35 1.48 1.48 1.51 1.53 1.51 1.45 1.41 1.43 1.39 1.35 1.38 1.40 1.51 1.62 1.62 1.63 1.66 1.67 1.66 1.67 1.74 1.75 1.75 1.75 1.77 1.81 1.77 1.79 1.79 1.78 1.79 1.80 1.73 1.73 1.74 1.79 1.77 1.81 1.83 1.88 1.88 1.79 1.75 1.81 1.79 1.73 1.74 1.73 1.74 1.73 1.74 1.76 1.78 1.85 1.84 1.81 1.80 1.75 1.74 1.72 1.71 1.67 1.50 1.40 1.39 1.40 1.43 1.44 1.43 1.39 1.33 1.26 1.25 1.27 1.30 1.35 1.40 1.42 1.45 1.50 1.53 1.54 1.55
1.29 1.32 1.45 1.49 1.51 1.54 1.57 1.49 1.43 1.47 1.38 1.37 1.42 1.42 1.57 1.64 1.63 1.67 1.70 1.68 1.65 1.67 1.73 1.78 1.80 1.80 1.83 1.87 1.87 1.83 1.81 1.82 1.85 1.84 1.80 1.79 1.78 1.83 1.83 1.80 1.76 1.73 1.78 1.79 1.71 1.72 1.75 1.80 1.81 1.75 1.64 1.66 1.68 1.68 1.74 1.82 1.82 1.80 1.78 1.74 1.74 1.72 1.73 1.74 1.63 1.52 1.54 1.55 1.55 1.54 1.49 1.45 1.42 1.38 1.35 1.33 1.34 1.38 1.40 1.41 1.42 1.44 1.45 1.49 1.52
1.27 1.30 1.40 1.46 1.48 1.56 1.56 1.51 1.45 1.50 1.41 1.41 1.47 1.55 1.62 1.65 1.66 1.65 1.65 1.69 1.64 1.66 1.76 1.81 1.80 1.86 1.93 1.94 1.91 1.81 1.84 1.88 1.81 1.77 1.86 1.87 1.85 1.85 1.82 1.75 1.74 1.77 1.77 1.78 1.76 1.69 1.73 1.77 1.77 1.77 1.70 1.62 1.61 1.59 1.64 1.70 1.75 1.75 1.74 1.73 1.73 1.73 1.75 1.76 1.69 1.57 1.55 1.57 1.59 1.58 1.55 1.51 1.47 1.45 1.43 1.41 1.40 1.39 1.39 1.41 1.43 1.45 1.47 1.49 1.47
1.29 1.31 1.36 1.41 1.48 1.55 1.54 1.49 1.52 1.52 1.47 1.49 1.54 1.62 1.65 1.63 1.68 1.65 1.64 1.65 1.63 1.69 1.71 1.73 1.77 1.82 1.86 1.93 1.93 1.90 1.84 1.77 1.73 1.73 1.75 1.77 1.82 1.81 1.77 1.76 1.77 1.84 1.82 1.73 1.73 1.73 1.70 1.74 1.74 1.72 1.72 1.69 1.66 1.64 1.61 1.64 1.71 1.74 1.75 1.72 1.72 1.73 1.75 1.72 1.68 1.59 1.57 1.57 1.59 1.59 1.58 1.56 1.53 1.50 1.45 1.43 1.42 1.41 1.39 1.39 1.39 1.39 1.40 1.42 1.44
1.33 1.28 1.33 1.38 1.50 1.54 1.54 1.54 1.59 1.58 1.56 1.49 1.55 1.67 1.70 1.64 1.70 1.71 1.67 1.68 1.71 1.70 1.67 1.68 1.68 1.75 1.81 1.88 1.90 1.90 1.82 1.76 1.71 1.70 1.73 1.77 1.77 1.76 1.73 1.70 1.69 1.75 1.79 1.75 1.75 1.72 1.75 1.73 1.70 1.66 1.69 1.64 1.61 1.63 1.59 1.57 1.57 1.57 1.63 1.67 1.73 1.77 1.77 1.78 1.70 1.62 1.57 1.54 1.55 1.58 1.58 1.57 1.56 1.55 1.53 1.50 1.47 1.43 1.41 1.39 1.38 1.39 1.39 1.41 1.44
1.33 1.26 1.31 1.40 1.46 1.51 1.53 1.58 1.59 1.62 1.61 1.55 1.69 1.76 1.69 1.65 1.69 1.72 1.74 1.78 1.77 1.66 1.61 1.59 1.61 1.68 1.76 1.80 1.82 1.81 1.78 1.76 1.74 1.68 1.69 1.71 1.72 1.75 1.74 1.75 1.73 1.77 1.78 1.73 1.73 1.77 1.75 1.69 1.71 1.70 1.65 1.65 1.62 1.59 1.54 1.51 1.50 1.53 1.59 1.66 1.79 1.77 1.78 1.75 1.67 1.62 1.56 1.55 1.54 1.54 1.54 1.55 1.55 1.53 1.54 1.53 1.50 1.47 1.45 1.41 1.39 1.39 1.38 1.40 1.41
1.38 1.32 1.31 1.37 1.39 1.46 1.50 1.57 1.62 1.66 1.68 1.62 1.68 1.74 1.72 1.69 1.69 1.70 1.77 1.81 1.73 1.55 1.47 1.52 1.62 1.69 1.75 1.79 1.78 1.77 1.78 1.73 1.73 1.74 1.77 1.76 1.77 1.78 1.81 1.74 1.69 1.70 1.72 1.74 1.75 1.74 1.71 1.67 1.69 1.78 1.70 1.65 1.65 1.63 1.60 1.57 1.47 1.45 1.52 1.54 1.63 1.68 1.66 1.63 1.58 1.56 1.57 1.56 1.56 1.51 1.50 1.54 1.54 1.53 1.53 1.52 1.52 1.50 1.47 1.45 1.42 1.42 1.42 1.43 1.43
1.36 1.33 1.30 1.31 1.42 1.46 1.52 1.56 1.57 1.61 1.71 1.70 1.73 1.69 1.72 1.72 1.74 1.72 1.76 1.74 1.64 1.54 1.52 1.58 1.58 1.63 1.65 1.72 1.83 1.82 1.78 1.80 1.82 1.81 1.82 1.76 1.74 1.74 1.75 1.70 1.72 1.75 1.79 1.80 1.75 1.74 1.69 1.68 1.67 1.71 1.71 1.66 1.59 1.54 1.51 1.45 1.45 1.47 1.50 1.53 1.59 1.62 1.64 1.60 1.58 1.54 1.54 1.55 1.52 1.57 1.57 1.56 1.54 1.55 1.54 1.53 1.51 1.49 1.48 1.47 1.44 1.43 1.42 1.43 1.46
1.38 1.30 1.23 1.27 1.36 1.44 1.51 1.47 1.54 1.62 1.72 1.70 1.70 1.66 1.68 1.69 1.74 1.72 1.74 1.67 1.59 1.59 1.55 1.57 1.55 1.52 1.56 1.69 1.79 1.81 1.79 1.79 1.84 1.81 1.81 1.81 1.75 1.72 1.71 1.70 1.74 1.83 1.81 1.76 1.75 1.75 1.73 1.69 1.69 1.68 1.72 1.65 1.54 1.51 1.50 1.41 1.40 1.42 1.46 1.49 1.52 1.53 1.58 1.57 1.56 1.52 1.52 1.52 1.51 1.53 1.59 1.56 1.57 1.61 1.61 1.59 1.53 1.47 1.45 1.44 1.43 1.43 1.41 1.41 1.42
1.34 1.28 1.21 1.25 1.30 1.41 1.47 1.42 1.54 1.60 1.69 1.65 1.67 1.66 1.66 1.68 1.69 1.70 1.73 1.63 1.57 1.60 1.56 1.58 1.56 1.52 1.46 1.64 1.72 1.75 1.78 1.79 1.81 1.81 1.77 1.80 1.76 1.69 1.70 1.74 1.78 1.78 1.81 1.79 1.76 1.72 1.76 1.77 1.77 1.72 1.62 1.53 1.47 1.41 1.42 1.34 1.36 1.38 1.44 1.50 1.52 1.59 1.60 1.62 1.55 1.54 1.57 1.54 1.54 1.53 1.55 1.58 1.64 1.65 1.65 1.63 1.57 1.50 1.43 1.37 1.40 1.40 1.38 1.36 1.37
1.35 1.29 1.18 1.20 1.28 1.37 1.46 1.45 1.50 1.58 1.62 1.61 1.65 1.68 1.72 1.67 1.66 1.68 1.65 1.55 1.50 1.58 1.58 1.60 1.56 1.51 1.48 1.54 1.67 1.77 1.76 1.80 1.84 1.85 1.80 1.75 1.75 1.78 1.81 1.76 1.75 1.74 1.73 1.76 1.76 1.77 1.80 1.75 1.74 1.77 1.73 1.55 1.47 1.34 1.32 1.29 1.31 1.34 1.39 1.47 1.55 1.60 1.66 1.61 1.51 1.53 1.55 1.54 1.56 1.57 1.56 1.56 1.60 1.63 1.66 1.65 1.61 1.54 1.47 1.40 1.40 1.42 1.40 1.38 1.38
1.38 1.30 1.22 1.17 1.24 1.35 1.42 1.45 1.50 1.57 1.58 1.61 1.62 1.64 1.67 1.66 1.63 1.62 1.56 1.43 1.45 1.52 1.55 1.57 1.53 1.52 1.49 1.58 1.68 1.74 1.78 1.81 1.82 1.83 1.79 1.77 1.77 1.77 1.77 1.77 1.78 1.78 1.75 1.72 1.68 1.74 1.76 1.74 1.68 1.76 1.76 1.65 1.55 1.42 1.35 1.37 1.37 1.37 1.40 1.39 1.47 1.52 1.59 1.56 1.51 1.51 1.50 1.47 1.52 1.53 1.56 1.58 1.57 1.57 1.66 1.65 1.60 1.58 1.52 1.51 1.48 1.41 1.40 1.41 1.42
1.40 1.31 1.26 1.18 1.25 1.33 1.41 1.44 1.46 1.46 1.50 1.60 1.60 1.62 1.59 1.59 1.56 1.50 1.41 1.41 1.43 1.47 1.51 1.55 1.54 1.58 1.59 1.59 1.67 1.72 1.76 1.77 1.79 1.81 1.79 1.78 1.79 1.83 1.81 1.84 1.84 1.82 1.76 1.67 1.63 1.62 1.61 1.67 1.71 1.72 1.77 1.71 1.65 1.57 1.47 1.46 1.42 1.39 1.37 1.38 1.41 1.46 1.47 1.50 1.57 1.51 1.41 1.45 1.47 1.49 1.54 1.49 1.49 1.47 1.50 1.55 1.60 1.63 1.58 1.55 1.51 1.49 1.43 1.43 1.43
1.40 1.31 1.28 1.19 1.21 1.28 1.35 1.41 1.40 1.40 1.47 1.54 1.54 1.51 1.47 1.46 1.37 1.36 1.32 1.36 1.38 1.41 1.52 1.57 1.64 1.68 1.69 1.63 1.65 1.71 1.77 1.75 1.77 1.84 1.84 1.81 1.79 1.80 1.77 1.81 1.82 1.78 1.68 1.57 1.54 1.57 1.57 1.59 1.63 1.65 1.62 1.62 1.61 1.50 1.46 1.47 1.44 1.39 1.34 1.31 1.33 1.39 1.44 1.51 1.50 1.45 1.40 1.41 1.42 1.45 1.45 1.48 1.52 1.46 1.40 1.38 1.44 1.52 1.57 1.54 1.47 1.43 1.43 1.43 1.45
1.42 1.31 1.26 1.14 1.19 1.22 1.29 1.32 1.37 1.39 1.38 1.40 1.40 1.38 1.30 1.31 1.29 1.21 1.21 1.29 1.35 1.46 1.49 1.59 1.68 1.72 1.73 1.69 1.67 1.73 1.76 1.72 1.74 1.84 1.84 1.81 1.81 1.82 1.83 1.83 1.86 1.83 1.67 1.56 1.57 1.64 1.69 1.71 1.66 1.65 1.55 1.45 1.46 1.52 1.49 1.45 1.32 1.25 1.32 1.24 1.24 1.37 1.38 1.43 1.49 1.48 1.42 1.38 1.39 1.44 1.47 1.52 1.52 1.50 1.53 1.56 1.49 1.47 1.48 1.44 1.40 1.38 1.38 1.40 1.41
1.38 1.30 1.25 1.10 1.20 1.23 1.24 1.32 1.34 1.35 1.34 1.34 1.33 1.35 1.29 1.26 1.19 1.13 1.19 1.24 1.37 1.43 1.44 1.59 1.65 1.71 1.70 1.68 1.69 1.74 1.72 1.69 1.71 1.75 1.82 1.79 1.75 1.80 1.81 1.72 1.73 1.77 1.76 1.68 1.59 1.59 1.63 1.64 1.69 1.60 1.56 1.47 1.43 1.45 1.38 1.31 1.15 1.09 1.07 1.11 1.20 1.28 1.34 1.42 1.45 1.46 1.45 1.45 1.42 1.38 1.44 1.43 1.47 1.48 1.52 1.53 1.52 1.53 1.48 1.48 1.48 1.45 1.46 1.46 1.45
1.40 1.31 1.28 1.17 1.21 1.22 1.20 1.26 1.33 1.30 1.30 1.32 1.30 1.28 1.28 1.29 1.25 1.19 1.14 1.22 1.40 1.51 1.51 1.62 1.69 1.66 1.65 1.66 1.67 1.73 1.72 1.67 1.71 1.73 1.74 1.77 1.75 1.74 1.70 1.76 1.76 1.69 1.64 1.62 1.63 1.63 1.68 1.67 1.64 1.56 1.46 1.52 1.50 1.48 1.45 1.45 1.21 1.27 1.25 1.16 1.08 1.11 1.22 1.33 1.42 1.45 1.45 1.46 1.46 1.40 1.35 1.40 1.42 1.44 1.43 1.42 1.45 1.44 1.47 1.47 1.44 1.45 1.46 1.46 1.44
1.41 1.34 1.27 1.20 1.22 1.23 1.15 1.20 1.29 1.29 1.26 1.30 1.28 1.31 1.29 1.31 1.30 1.21 1.16 1.24 1.32 1.48 1.52 1.63 1.68 1.65 1.58 1.63 1.65 1.69 1.70 1.68 1.68 1.69 1.73 1.73 1.74 1.73 1.73 1.68 1.64 1.69 1.65 1.64 1.62 1.62 1.70 1.66 1.64 1.61 1.52 1.37 1.40 1.37 1.43 1.47 1.37 1.19 1.04 1.12 1.11 1.14 1.01 1.05 1.17 1.32 1.46 1.46 1.43 1.38 1.36 1.37 1.40 1.41 1.40 1.31 1.32 1.35 1.39 1.38 1.42 1.45 1.46 1.43 1.41
1.41 1.33 1.23 1.20 1.20 1.21 1.14 1.13 1.22 1.26 1.24 1.26 1.26 1.27 1.27 1.27 1.26 1.21 1.15 1.26 1.36 1.41 1.44 1.50 1.62 1.60 1.56 1.59 1.59 1.64 1.66 1.63 1.64 1.66 1.71 1.72 1.75 1.76 1.71 1.68 1.70 1.70 1.66 1.63 1.64 1.68 1.75 1.78 1.71 1.60 1.52 1.44 1.29 1.31 1.38 1.43 1.40 1.48 1.31 1.15 1.09 1.06 1.04 1.12 1.19 1.16 1.38 1.35 1.37 1.36 1.38 1.36 1.32 1.31 1.34 1.30 1.33 1.31 1.32 1.38 1.41 1.43 1.42 1.41 1.41
1.41 1.34 1.28 1.25 1.22 1.24 1.18 1.12 1.17 1.25 1.21 1.24 1.25 1.25 1.15 1.16 1.15 1.09 0.98 1.06 1.11 1.23 1.25 1.35 1.49 1.49 1.46 1.56 1.58 1.60 1.59 1.55 1.56 1.58 1.65 1.68 1.70 1.74 1.72 1.67 1.70 1.69 1.69 1.65 1.67 1.74 1.74 1.69 1.72 1.66 1.59 1.61 1.45 1.31 1.30 1.40 1.35 1.36 1.52 1.50 1.34 1.13 1.10 1.23 1.25 0.88 1.23 1.30 1.27 1.34 1.36 1.35 1.31 1.27 1.35 1.34 1.35 1.36 1.39 1.37 1.37 1.37 1.37 1.37 1.36
1.45 1.42 1.37 1.33 1.26 1.28 1.19 1.12 1.11 1.19 1.21 1.22 1.25 1.21 1.11 1.15 1.12 1.14 1.08 0.95 1.02 1.16 1.27 1.39 1.44 1.54 1.53 1.47 1.49 1.54 1.55 1.54 1.54 1.56 1.61 1.65 1.71 1.74 1.73 1.72 1.72 1.71 1.70 1.70 1.69 1.70 1.74 1.75 1.77 1.65 1.63 1.60 1.53 1.29 1.26 1.21 1.27 1.23 1.39 1.39 1.37 1.35 1.32 1.18 1.02 1.15 0.98 1.14 1.27 1.25 1.26 1.33 1.30 1.28 1.29 1.35 1.34 1.34 1.33 1.34 1.34 1.37 1.39 1.38 1.36
1.48 1.48 1.44 1.38 1.28 1.25 1.22 1.14 1.12 1.15 1.18 1.20 1.21 1.20 1.10 1.08 1.08 1.15 1.14 1.05 1.06 1.06 1.18 1.26 1.41 1.49 1.46 1.43 1.41 1.45 1.48 1.53 1.54 1.55 1.57 1.61 1.65 1.65 1.67 1.67 1.66 1.66 1.69 1.67 1.69 1.74 1.74 1.78 1.76 1.70 1.69 1.61 1.54 1.42 1.33 1.32 1.18 1.15 1.33 1.32 1.32 1.32 1.23 1.19 1.24 1.09 1.03 0.98 1.02 1.23 1.31 1.30 1.28 1.27 1.31 1.29 1.29 1.29 1.29 1.33 1.33 1.36 1.35 1.32 1.34
1.49 1.47 1.44 1.39 1.32 1.27 1.28 1.21 1.12 1.11 1.17 1.15 1.14 1.15 1.10 1.06 1.06 1.11 1.12 1.11 1.12 1.11 1.13 1.22 1.23 1.35 1.39 1.44 1.40 1.38 1.43 1.48 1.54 1.52 1.55 1.55 1.60 1.60 1.59 1.59 1.61 1.63 1.67 1.62 1.65 1.74 1.66 1.66 1.66 1.65 1.66 1.62 1.62 1.55 1.44 1.40 1.38 1.30 1.24 1.27 1.31 1.28 1.24 1.23 1.29 1.26 1.08 0.92 0.96 1.05 1.08 1.22 1.26 1.27 1.27 1.20 1.22 1.27 1.27 1.26 1.30 1.32 1.32 1.32 1.35
1.50 1.53 1.51 1.46 1.39 1.32 1.29 1.24 1.14 1.08 1.15 1.15 1.12 1.10 1.07 1.04 1.04 1.05 1.04 1.07 1.09 1.10 1.08 1.12 1.13 1.16 1.29 1.37 1.39 1.36 1.37 1.38 1.52 1.53 1.50 1.50 1.53 1.55 1.56 1.54 1.54 1.62 1.65 1.58 1.59 1.68 1.64 1.66 1.65 1.63 1.64 1.62 1.61 1.61 1.55 1.49 1.51 1.45 1.35 1.21 1.18 1.18 1.23 1.24 1.20 1.17 1.13 1.11 0.97 0.99 1.08 1.06 1.06 1.13 1.23 1.16 1.09 1.18 1.21 1.22 1.24 1.26 1.23 1.26 1.33
1.55 1.55 1.54 1.50 1.44 1.35 1.31 1.24 1.19 1.11 1.12 1.14 1.10 1.06 1.03 1.00 0.97 1.00 1.00 1.01 1.02 1.01 0.98 1.08 1.09 1.06 1.12 1.22 1.29 1.31 1.34 1.31 1.43 1.48 1.45 1.45 1.46 1.50 1.52 1.53 1.55 1.59 1.60 1.57 1.60 1.61 1.60 1.62 1.61 1.64 1.66 1.66 1.60 1.62 1.58 1.55 1.52 1.45 1.38 1.29 1.15 1.15 1.13 1.15 1.11 1.07 1.05 1.04 1.05 1.02 1.04 1.07 1.07 1.05 1.12 1.21 1.21 1.23 1.22 1.23 1.20 1.22 1.25 1.29 1.32
Wind_Speed
15 16 17 17 17 17 17 17 18 18 18 18 18 17 17 17 17 17 17 17 16 16 15 15 14 14 13 13 13 13 13 12 12 12 11 11 11 11 10 10 10 11 11 11 11 11 11 11 11 10 10 9 9 8 8 8 7 7 7 7 7 7 7 7 8 8 8 8 8 8 9 9 10 10 10 11 11 12 12 13 13 13 13 13 13
16 17 17 17 17 16 17 17 17 17 17 17 17 17 17 17 17 17 17 16 16 15 15 14 14 13 13 13 13 13 13 12 12 12 11 11 11 11 11 11 11 11 11 11 11 11 11 11 11 11 11 10 9 9 9 8 8 8 8 7 7 8 8 8 8 9 9 9 9 9 9 10 10 10 10 11 11 12 13 13 13 13 13 13 13
16 17 17 17 16 17 17 17 17 17 17 17 17 17 17 17 17 17 16 16 15 15 14 14 13 13 13 13 13 13 13 12 12 11 11 11 11 11 11 11 11 11 11 12 11 11 11 11 11 11 11 10 10 9 9 9 9 8 8 8 8 8 8 8 9 9 9 9 9 10 10 10 10 11 11 11 12 12 13 13 13 13 13 13 13
16 16 16 16 16 17 17 18 18 17 17 17 17 17 17 17 16 16 16 15 14 14 14 13 13 13 13 13 13 12 12 12 12 11 11 11 11 11 11 11 11 11 11 12 12 12 12 12 11 11 11 10 10 10 10 9 9 9 8 8 8 8 8 9 9 9 9 10 10 10 10 10 11 11 12 12 12 13 13 13 13 13 13 13 13
16 16 16 16 16 17 17 17 17 17 17 17 17 17 17 16 16 16 15 15 14 13 13 13 13 13 13 13 12 12 12 12 11 11 11 11 11 10 11 11 11 11 11 11 12 12 11 12 12 11 11 11 11 10 10 10 10 9 9 9 9 9 9 9 9 10 10 10 10 10 10 11 11 12 12 13 13 13 13 13 13 13 13 13 13
16 16 16 16 16 17 17 17 17 17 17 17 17 17 16 16 16 15 15 14 13 13 13 13 13 12 12 12 12 12 12 11 11 11 10 10 10 10 10 11 11 11 11 11 11 11 11 11 12 12 11 11 11 11 11 10 10 10 9 9 10 10 10 10 10 10 10 10 11 11 11 11 12 12 13 13 13 13 13 12 13 13 13 13 13
16 16 16 16 16 17 17 17 17 17 17 16 16 16 16 15 15 15 14 13 13 13 12 12 12 12 12 12 12 12 11 11 11 11 10 10 10 10 11 11 11 11 11 11 11 11 11 12 12 12 12 12 12 12 11 11 11 11 10 10 10 10 10 10 11 11 11 11 12 12 12 12 13 13 13 13 13 12 13 13 13 13 13 13 13
16 16 16 16 16 17 17 17 17 17 17 16 16 16 16 15 14 14 13 13 12 12 12 12 12 12 12 12 11 11 11 11 11 11 11 10 10 10 11 11 11 11 11 11 11 11 12 12 12 12 12 12 12 12 12 12 12 11 11 11 11 11 11 12 12 12 12 13 13 13 13 13 14 13 13 13 13 13 13 13 13 13 13 13 13
16 16 16 16 16 17 17 17 17 16 16 16 16 16 15 15 14 13 13 12 12 12 12 12 12 12 12 11 11 11 11 11 11 11 11 11 10 11 11 11 11 11 11 11 11 11 12 12 12 12 12 13 13 13 13 13 13 13 13 13 13 13 13 13 13 13 14 14 14 14 14 14 14 13 13 13 13 13 13 13 13 13 12 12 12
16 16 16 16 16 16 17 17 16 16 16 16 16 15 15 14 13 13 12 12 12 13 13 12 12 12 11 11 11 12 12 11 11 11 11 11 11 11 11 11 11 11 11 11 11 11 12 12 12 12 12 13 13 13 14 14 14 14 14 14 14 14 14 14 15 14 14 14 15 15 15 14 13 13 13 13 13 13 13 12 12 12 12 12 12
16 16 16 16 16 16 16 16 16 16 16 15 15 15 14 14 13 13 13 13 13 13 12 12 12 11 11 11 12 12 12 12 12 11 11 11 11 11 11 11 12 12 11 11 11 12 12 12 12 12 12 13 13 14 14 15 15 15 15 15 15 15 15 15 15 15 15 15 15 15 14 14 13 13 13 13 13 13 12 12 12 12 12 12 12
16 16 16 16 16 16 16 16 16 16 15 15 15 14 14 14 13 13 13 13 13 12 12 12 12 11 11 12 12 12 12 12 12 12 12 12 12 12 12 12 12 11 11 11 12 12 12 12 12 12 13 13 14 14 15 15 16 15 15 16 16 16 16 16 16 16 16 15 15 15 15 14 14 14 14 13 13 12 12 12 12 12 12 12 12
16 16 16 16 16 16 16 16 16 16 15 15 15 14 14 14 13 13 13 13 12 12 12 12 12 12 12 12 12 12 12 13 12 12 12 12 12 12 12 12 12 12 12 12 12 12 12 13 13 13 13 14 14 14 15 16 16 16 16 16 16 16 16 16 16 16 15 15 15 15 15 14 14 14 14 13 13 12 12 12 12 12 12 12 12
16 16 16 16 16 16 16 16 15 15 15 15 15 14 14 14 13 13 13 12 12 12 12 12 12 12 12 12 12 12 13 13 13 13 13 13 13 13 13 12 12 12 12 12 13 13 13 13 13 13 13 14 14 14 15 15 16 16 16 16 16 16 16 16 16 15 15 15 15 15 15 14 14 14 13 13 12 12 12 12 12 12 12 12 12
16 16 16 15 15 15 15 15 15 15 15 15 15 14 14 13 13 13 12 12 12 12 12 12 12 12 12 12 13 13 13 13 13 13 13 13 13 13 13 13 13 12 12 13 13 14 14 14 14 14 13 14 14 14 14 15 15 16 16 16 16 16 16 16 15 15 15 15 14 14 14 14 13 13 12 12 12 12 11 11 12 12 12 12 11
16 16 15 15 15 15 15 15 15 15 15 15 15 14 14 13 13 12 12 12 12 12 12 12 12 12 13 13 13 13 13 14 14 14 14 14 14 14 14 13 13 13 13 13 14 14 14 14 14 14 14 14 14 14 14 14 15 15 15 15 15 15 15 15 15 15 14 14 14 13 13 13 12 12 12 11 11 11 11 11 11 11 11 11 11
16 15 15 15 15 14 14 14 15 15 15 15 14 14 13 13 12 12 12 12 12 12 13 13 13 13 13 13 13 13 14 14 14 14 14 14 14 14 14 14 14 14 14 14 14 14 14 14 14 14 14 14 14 14 14 14 14 15 15 15 15 15 15 15 14 14 14 13 13 12 12 11 11 11 11 11 10 11 11 11 11 11 11 11 11
15 15 14 14 14 15 14 14 15 15 14 14 14 14 13 12 12 12 12 12 13 13 13 13 13 13 13 13 13 13 14 14 14 15 15 15 15 15 15 15 15 15 14 14 14 14 14 14 13 13 13 14 14 14 14 14 14 14 14 14 14 14 14 14 13 13 12 12 12 11 11 11 10 10 10 10 10 10 11 11 11 11 11 11 11
14 14 14 14 14 14 14 14 15 14 14 14 14 13 13 12 12 12 12 13 13 13 13 13 13 13 13 13 13 14 14 14 14 15 15 15 16 16 16 16 16 15 15 15 14 14 14 13 13 13 13 13 14 14 14 14 14 14 14 14 14 14 13 13 13 12 12 11 11 11 11 11 10 10 10 10 11 11 11 11 11 11 11 11 11
13 13 13 13 14 14 14 14 14 14 14 14 13 13 12 12 12 12 13 13 13 13 13 13 13 13 14 13 13 14 14 14 15 15 15 15 16 16 16 16 16 16 15 15 15 14 14 13 13 13 13 13 13 13 13 13 13 14 14 14 14 14 13 12 12 12 12 11 11 11 11 11 11 11 11 11 11 11 11 11 10 11 11 11 11
13 13 13 13 14 14 14 14 14 14 14 14 13 13 13 13 13 13 13 13 13 13 13 13 14 14 14 14 14 14 14 14 14 14 14 15 15 16 16 16 16 16 16 15 15 15 14 14 13 13 13 13 13 13 13 13 13 13 13 13 13 13 12 12 12 12 12 11 11 11 12 12 12 12 11 11 11 11 10 10 10 10 10 11 11
13 12 12 13 13 14 14 14 14 14 14 14 13 13 13 13 13 13 13 13 13 13 13 14 14 14 14 14 14 14 14 14 14 14 14 14 15 15 15 15 15 15 15 15 15 15 14 14 14 13 13 12 12 12 12 12 12 12 12 12 12 12 12 12 12 12 12 11 11 11 12 12 12 11 11 11 11 11 10 10 10 10 10 10 10
12 12 12 13 13 13 14 14 14 14 14 14 13 13 13 13 13 13 13 13 13 13 13 14 14 14 14 13 14 14 14 14 14 14 14 14 14 14 14 14 14 14 14 14 14 14 14 14 14 13 13 12 12 11 11 11 11 11 11 11 11 11 12 12 12 12 12 12 12 11 12 11 11 11 11 11 11 11 11 10 10 10 10 10 10
12 12 12 13 13 13 13 14 14 14 14 13 13 13 13 13 13 13 13 13 13 13 13 13 14 14 14 13 13 13 13 13 13 13 13 13 13 13 14 14 14 14 14 14 14 14 14 14 13 13 13 13 12 11 11 11 11 11 11 11 11 11 12 12 12 12 12 12 12 12 12 12 11 11 11 11 11 10 10 10 10 10 10 10 10
12 12 12 13 13 13 13 14 14 14 13 13 13 13 13 13 13 13 13 13 13 13 13 13 13 14 13 13 13 13 13 13 13 13 13 13 13 13 13 13 13 13 13 13 13 13 13 13 13 13 13 12 12 12 12 11 11 11 11 11 11 11 12 12 12 12 12 12 12 12 12 12 12 11 11 11 10 10 10 10 10 10 10 10 10
12 12 12 13 14 13 14 14 14 14 14 14 13 13 13 13 13 13 13 13 13 13 13 13 13 13 13 13 13 12 12 12 12 12 12 12 12 13 12 12 12 12 12 12 12 12 12 12 12 13 13 12 12 12 12 12 11 11 11 11 11 11 12 12 12 12 12 12 13 12 12 12 12 11 11 11 11 11 10 10 10 10 10 10 10
12 12 12 13 14 13 14 14 14 14 14 14 14 13 13 13 13 13 13 13 13 13 12 13 13 13 12 12 12 12 12 12 12 11 11 12 12 12 12 12 12 11 11 11 11 11 11 11 12 12 12 12 12 12 12 12 11 11 11 12 12 11 11 11 12 12 12 12 12 12 12 12 12 12 12 11 11 11 11 11 10 10 10 10 10
12 12 13 13 14 13 14 14 14 14 14 14 14 13 13 13 13 13 13 13 13 13 12 12 12 12 12 11 11 11 11 11 11 11 11 11 11 11 11 11 11 11 11 11 11 11 11 11 11 11 11 12 12 12 12 12 12 12 12 12 12 11 11 11 12 12 12 12 12 12 12 12 12 12 12 12 11 11 11 10 10 10 10 10 9
12 13 13 14 14 14 14 14 14 14 14 14 13 13 13 13 13 13 13 13 13 12 12 12 12 12 11 11 10 10 10 10 10 10 10 10 10 10 10 10 10 10 11 11 10 11 11 10 11 11 11 11 11 11 11 11 11 12 12 12 11 11 11 11 11 11 11 11 11 12 12 12 12 12 11 11 11 11 10 10 10 10 9 9 9
13 13 14 14 14 14 14 15 14 14 14 14 13 13 13 13 13 13 13 13 12 12 12 11 12 11 11 10 10 10 10 10 10 10 10 10 10 10 10 10 9 10 10 10 10 10 10 10 10 10 10 10 10 10 10 10 11 11 11 11 11 11 10 11 11 11 11 11 11 11 11 11 11 11 11 11 10 10 10 10 10 9 9 9 8
13 14 14 14 14 14 14 15 15 14 14 14 13 13 13 13 13 13 13 13 12 12 12 11 11 11 10 10 10 10 10 10 10 10 10 9 10 10 10 10 9 9 10 10 10 10 10 9 9 9 10 10 10 10 9 10 10 10 11 11 10 10 10 10 10 10 10 10 10 10 10 10 10 10 10 10 10 10 10 9 9 9 8 8 8
13 14 14 14 15 14 15 15 15 15 14 13 14 13 13 13 13 13 13 13 12 12 12 11 11 11 10 10 10 10 9 10 10 9 10 9 9 9 9 10 9 10 10 10 10 9 9 9 9 9 9 10 10 10 10 10 9 9 10 10 10 9 9 9 9 10 9 9 9 9 9 8 8 8 8 8 9 9 9 8 8 8 8 8 8
13 14 15 15 15 14 15 15 15 15 14 13 14 13 13 13 14 14 13 13 12 12 12 11 12 11 10 10 10 10 10 10 10 10 10 9 9 9 9 9 9 10 9 9 10 9 9 9 9 9 9 10 10 10 9 9 9 9 9 10 9 9 9 9 8 9 9 8 8 8 8 8 8 8 8 8 8 8 8 7 7 7 7 7 7
13 14 15 15 15 14 14 15 15 15 14 14 14 14 14 13 14 14 13 13 12 12 12 12 12 11 11 10 11 10 10 10 10 10 10 9 9 9 9 9 9 9 9 9 9 9 9 9 9 9 9 9 9 9 9 8 8 8 9 9 9 8 9 8 8 8 8 8 8 7 7 7 7 7 7 7 7 7 7 7 6 6 6 6 6
14 14 16 15 15 15 14 14 15 15 14 14 14 14 14 14 14 14 13 13 12 12 12 12 11 11 11 10 10 10 10 9 9 10 9 9 9 8 9 9 9 9 8 8 8 8 8 9 9 9 9 9 9 8 8 8 8 9 9 9 8 8 8 8 8 7 7 7 7 7 7 7 7 7 7 6 6 6 6 6 6 6 6 6 6
14 15 16 15 15 15 14 15 16 15 14 14 14 14 14 14 14 14 14 14 12 12 12 12 11 11 10 10 10 10 9 9 9 9 9 9 8 8 9 9 8 8 8 8 8 8 8 8 8 9 9 9 9 8 8 8 8 9 9 8 8 8 8 8 7 7 7 7 7 7 7 7 6 6 6 6 5 5 5 5 5 5 5 5 5
15 15 16 16 16 15 15 15 16 15 14 15 14 14 14 14 14 14 14 13 12 12 12 12 11 10 10 10 10 10 10 10 9 9 9 9 9 8 8 9 9 8 8 8 8 8 8 8 8 8 9 9 9 8 8 8 8 8 8 8 7 7 7 7 6 6 6 6 6 6 6 6 6 5 5 5 5 5 5 5 5 5 5 5 5
15 16 16 16 16 16 15 16 16 15 15 15 15 14 14 14 14 14 14 13 12 12 12 11 11 10 10 10 10 10 10 10 10 9 9 9 9 9 8 8 8 8 8 8 8 7 8 8 8 8 9 8 8 7 7 7 7 8 8 7 7 7 7 7 7 7 6 6 6 5 5 6 6 5 5 5 4 4 5 5 5 5 5 5 6
16 16 17 17 17 16 15 16 16 16 15 15 15 15 14 14 14 14 14 13 12 12 12 11 11 11 11 11 11 10 10 10 10 10 9 9 9 9 9 9 9 9 8 9 8 8 8 8 8 8 8 7 7 7 7 6 6 8 8 7 7 7 7 6 6 6 6 5 5 5 5 5 5 5 5 4 4 4 5 5 5 5 5 5 6
17 17 18 17 17 17 16 16 17 16 16 16 16 15 15 14 14 15 15 13 13 12 12 12 11 11 10 11 11 10 10 10 10 10 9 9 9 9 9 9 9 9 9 9 9 9 9 9 9 8 8 8 7 7 7 7 7 8 7 7 7 6 6 6 6 6 6 5 5 4 4 4 4 5 4 4 4 5 5 5 5 5 5 6 6
17 18 18 18 18 17 17 17 17 17 16 17 16 16 16 15 14 15 15 14 14 13 12 12 11 11 11 11 11 11 11 11 10 10 10 9 9 9 9 9 9 9 9 9 9 9 9 9 9 9 9 8 7 7 7 7 7 7 7 7 6 6 6 6 5 5 5 5 5 4 3 3 4 4 5 5 5 5 6 6 6 6 7 7 7
19 19 19 19 18 18 18 17 17 17 17 17 17 16 16 15 15 15 15 15 14 13 13 12 11 11 11 11 11 11 11 11 10 10 10 9 9 9 9 9 9 9 9 9 9 9 9 9 9 9 9 9 8 7 7 7 7 7 7 7 6 5 6 5 5 5 5 4 5 5 4 4 4 5 5 6 6 6 6 6 7 7 8 8 8
19 20 19 19 19 18 19 18 18 18 17 17 18 17 16 16 15 15 16 15 14 13 13 13 12 11 11 11 11 12 11 11 11 11 10 10 9 9 9 10 9 9 9 9 9 9 9 9 9 9 9 8 8 7 8 8 7 7 7 6 6 6 5 5 4 4 4 4 4 5 5 5 5 5 6 6 6 6 6 7 7 8 8 8 9
20 20 20 20 20 19 20 19 18 18 18 18 18 18 17 16 15 15 16 15 14 14 13 13 13 12 11 11 12 12 12 11 11 11 11 10 10 9 9 10 9 9 9 9 8 9 9 8 8 9 8 8 7 7 7 7 7 7 7 6 6 6 5 5 5 4 4 4 4 4 5 6 6 6 6 6 7 7 7 8 8 9 9 9 9
20 21 21 20 20 20 20 20 19 19 19 18 18 18 18 17 16 16 16 15 15 15 14 14 13 12 12 12 12 13 12 12 11 11 11 10 10 10 9 9 9 9 8 8 8 8 8 8 8 8 8 7 7 7 6 6 6 6 6 6 6 6 5 5 5 4 4 4 4 4 6 7 6 6 6 7 7 8 9 9 9 9 10 9 9
21 22 22 21 21 20 21 20 20 19 19 19 19 19 19 18 17 17 17 17 16 16 15 15 14 13 12 12 13 13 12 12 12 11 11 11 10 9 9 9 9 8 8 8 8 8 8 8 7 7 7 7 7 7 6 6 5 6 6 6 6 6 6 6 6 5 4 4 5 5 6 7 7 6 6 7 8 9 9 9 10 10 10 9 9
21 21 22 22 22 21 21 21 21 20 20 20 19 19 19 19 18 17 17 17 17 16 16 15 14 13 13 13 13 13 12 12 11 11 11 11 10 9 9 8 8 8 8 7 8 8 7 7 7 7 7 7 7 7 6 6 6 6 6 6 6 6 6 6 6 6 6 6 6 7 7 7 7 7 7 7 8 9 9 9 9 10 9 9 9
21 21 22 23 23 22 22 22 21 21 21 21 20 20 19 19 19 18 17 18 17 17 17 16 15 14 13 13 13 13 13 12 11 11 11 10 10 9 9 8 8 8 7 7 7 7 7 6 7 7 6 6 7 7 7 6 6 6 6 5 5 5 6 6 6 6 7 7 7 7 7 7 7 7 7 8 9 9 9 9 9 9 9 8 8
21 21 22 23 23 23 23 23 22 22 22 22 21 21 20 20 20 19 18 18 18 17 17 16 15 14 14 13 13 13 12 12 11 11 11 10 9 9 8 8 7 7 7 7 7 7 7 6 6 6 6 6 6 7 7 7 6 6 5 5 5 6 5 5 5 6 7 7 7 7 7 7 8 8 8 9 9 9 9 9 9 8 8 8 7
21 22 22 23 24 24 24 24 23 23 22 23 22 22 21 21 20 19 19 19 18 18 17 17 16 15 15 14 13 13 13 12 11 11 11 10 9 9 8 8 7 7 7 7 7 7 6 6 6 6 6 6 6 6 6 6 6 6 6 6 6 6 5 5 5 6 7 7 6 7 8 9 9 9 9 10 10 10 9 9 8 8 7 7 7
21 22 22 23 24 24 25 25 24 24 23 23 23 22 22 22 22 20 19 19 20 19 19 18 17 16 16 15 14 13 13 12 11 11 10 10 10 9 8 8 8 7 7 7 7 6 6 6 6 6 6 6 6 6 6 6 6 6 6 6 6 6 6 6 6 6 6 7 7 7 8 9 9 9 9 9 10 10 9 9 8 7 7 7 6
Wind_Direction
127 126 126 126 125 124 125 127 126 124 123 122 120 119 119 119 118 117 117 116 114 112 111 109 106 104 102 100 99 99 97 94 93 92 92 93 93 92 92 93 95 97 98 98 98 97 96 95 96 97 97 96 94 93 93 94 95 94 95 95 97 98 97 100 103 105 104 102 100 98 96 95 94 93 93 92 89 88 87 88 89 87 86 86 85
128 128 127 127 125 125 126 127 127 126 125 123 121 121 120 119 118 117 116 115 113 112 110 107 105 102 100 99 99 98 95 93 92 92 93 93 92 91 92 93 96 97 98 98 98 97 95 94 94 94 94 93 92 91 91 92 92 92 94 97 99 99 97 99 102 104 103 101 100 100 99 98 98 96 96 94 92 91 90 90 89 87 85 85 85
129 128 128 127 126 125 126 127 128 127 126 124 122 121 121 120 118 117 116 114 113 111 109 106 103 101 99 99 98 97 94 92 91 92 92 92 92 91 92 94 96 97 98 98 98 97 96 94 93 92 91 90 90 89 90 90 90 91 94 96 97 98 99 101 102 104 105 102 101 101 100 101 100 98 98 96 95 94 92 91 89 87 85 85 86
130 129 128 128 126 127 128 128 128 127 126 124 123 122 121 120 118 117 116 114 113 111 108 105 103 101 99 98 97 96 94 91 90 90 91 92 92 91 93 96 97 99 99 98 98 97 95 94 92 90 89 88 88 88 88 87 87 89 93 94 95 98 101 103 103 104 106 104 102 103 102 103 101 100 99 98 97 96 93 92 90 88 87 86 87
131 130 130 128 128 129 129 129 129 128 126 125 124 123 122 120 118 117 116 114 112 110 108 105 103 101 99 98 96 95 93 90 89 89 89 91 92 92 94 96 99 101 100 99 99 97 95 93 90 89 88 87 86 86 85 85 85 88 91 91 93 98 100 102 104 106 106 105 104 104 105 104 102 101 101 99 98 96 94 92 90 89 88 88 88
132 131 131 129 129 130 130 131 130 128 126 125 124 123 122 120 119 118 116 114 112 109 108 105 104 101 99 98 95 94 92 90 89 87 88 90 92 93 94 97 100 102 102 101 100 98 96 93 90 88 87 86 85 84 82 83 84 87 89 91 93 97 98 100 104 108 108 106 107 107 107 106 103 103 103 100 99 96 95 93 91 90 89 89 88
132 132 131 130 131 132 132 132 130 129 127 126 125 124 123 121 119 118 116 114 112 110 108 106 104 102 100 97 95 93 92 90 88 86 87 91 93 93 95 97 100 102 102 102 101 99 97 93 91 89 87 85 84 82 81 81 83 85 87 91 94 96 96 98 104 108 108 108 108 108 107 106 104 105 104 101 99 97 95 94 93 91 89 89 88
132 132 132 131 132 134 134 133 131 130 128 127 126 125 123 121 119 118 116 114 112 111 109 107 104 102 100 98 95 92 91 90 87 85 86 90 93 94 95 97 99 101 103 103 102 101 98 95 93 90 88 86 84 81 81 81 82 84 87 91 95 96 96 98 103 106 107 108 107 107 106 105 104 104 103 101 99 98 96 95 93 90 89 89 88
132 132 132 131 132 134 134 134 133 131 129 128 127 126 124 121 119 118 116 114 113 111 109 107 105 103 101 98 95 93 91 88 86 84 85 89 92 94 95 98 100 101 102 103 104 102 100 97 95 92 89 87 84 81 81 81 82 85 88 91 94 96 97 99 102 104 105 106 106 106 106 105 104 103 102 101 99 98 96 94 91 88 88 88 88
133 132 132 131 132 134 135 135 133 132 131 130 129 127 124 121 119 118 116 115 113 111 109 107 105 104 101 99 96 93 91 88 86 85 85 88 92 94 95 100 102 101 103 104 104 103 100 98 96 93 90 88 85 83 81 81 82 85 88 91 94 96 98 99 101 103 104 104 105 106 106 105 103 103 104 102 99 97 95 92 90 88 88 89 89
133 133 133 133 134 135 136 135 134 133 132 131 130 128 124 122 120 118 116 115 113 111 109 107 105 103 102 100 97 94 91 88 86 85 86 88 92 94 96 100 103 103 103 104 104 103 102 100 98 95 92 90 87 85 83 82 83 86 88 90 93 96 99 100 101 103 104 103 103 105 105 104 102 102 103 102 100 97 94 92 91 90 89 90 89
132 133 134 133 135 136 137 136 135 135 135 134 131 128 125 123 120 118 116 114 113 111 109 107 105 103 102 100 98 95 91 88 85 85 86 89 92 94 96 99 101 102 103 104 105 104 103 102 100 97 94 92 89 87 85 83 84 88 89 91 93 95 99 100 100 102 103 103 102 104 105 104 102 102 101 100 99 96 94 93 91 90 90 90 89
132 133 133 133 135 136 137 137 137 137 136 134 131 129 127 124 120 118 116 114 112 111 109 107 105 103 102 101 98 95 92 89 86 85 87 90 92 93 96 98 100 102 103 105 105 105 104 103 101 100 97 94 91 89 87 85 86 88 90 91 93 95 98 100 101 101 102 102 102 104 104 103 102 101 100 98 97 95 94 93 91 90 90 90 89
132 133 134 134 135 137 138 139 138 138 136 134 132 130 128 124 121 118 116 114 113 111 109 107 105 103 102 101 100 96 93 90 87 87 89 91 92 94 95 97 99 101 104 105 105 105 105 104 103 101 98 95 94 92 90 88 88 90 91 92 94 96 98 100 101 101 101 101 102 103 104 103 102 101 100 98 96 95 94 92 90 91 91 90 89
132 133 134 134 136 138 139 140 139 138 137 135 133 130 128 125 122 119 117 116 114 112 109 107 105 104 103 102 101 98 94 91 88 88 90 92 92 93 94 94 97 100 103 105 106 106 106 105 104 101 98 96 95 94 93 91 90 91 92 92 94 95 97 99 101 101 101 101 102 103 103 103 103 101 100 99 97 95 93 93 92 92 91 90 88
133 133 134 134 136 138 139 140 140 139 138 136 133 131 128 125 122 121 119 117 115 112 110 107 106 105 104 102 102 99 96 93 90 90 91 92 92 93 93 93 95 99 103 105 107 107 107 106 104 101 98 96 96 96 96 94 92 92 94 94 94 96 97 99 100 101 101 101 102 103 103 104 104 103 102 100 98 96 95 95 95 93 91 89 86
134 134 135 135 137 139 139 141 141 140 139 137 134 132 129 126 124 122 121 118 116 113 111 108 107 106 104 103 102 101 98 95 92 91 91 91 92 92 92 92 94 97 102 105 107 107 107 107 104 101 99 97 97 98 98 97 95 94 95 95 95 96 97 99 100 101 101 101 101 102 102 104 105 104 103 101 100 98 98 97 96 93 91 88 85
137 136 137 137 138 139 140 141 142 142 140 138 136 133 130 127 125 124 122 119 117 114 112 109 107 107 106 104 103 103 100 97 95 93 92 91 91 92 92 92 93 96 100 103 105 107 107 107 105 103 101 98 98 98 99 99 98 97 96 96 96 96 97 98 99 99 100 99 99 98 99 102 105 104 103 102 100 98 97 96 94 92 90 87 85
139 139 139 139 139 140 141 143 144 143 141 139 136 134 131 128 126 125 123 120 118 115 112 110 108 108 107 106 105 104 102 99 97 95 92 92 91 92 93 93 94 95 98 100 103 106 106 106 105 104 103 101 99 99 99 100 99 98 97 97 96 96 96 96 96 96 96 96 96 95 95 99 102 104 105 103 100 97 96 95 93 92 90 87 85
142 142 141 141 142 142 143 144 145 144 142 140 137 135 133 130 127 126 124 122 119 116 114 111 109 108 107 106 105 105 104 101 99 97 95 93 93 93 93 94 94 95 96 99 101 104 105 105 105 104 104 103 101 100 100 100 99 99 98 98 97 96 94 93 92 93 94 95 96 95 95 97 100 103 104 102 99 97 95 94 93 92 90 88 85
146 145 144 144 145 145 145 146 147 146 143 141 138 136 134 131 129 127 125 123 120 117 115 113 111 108 107 106 105 104 104 103 101 99 97 96 95 94 94 94 95 95 96 97 100 102 103 103 103 103 103 103 104 103 101 101 100 99 98 97 97 95 94 92 91 92 94 96 96 96 96 97 99 101 101 100 98 96 94 94 93 92 90 88 86
149 148 148 148 148 148 147 148 148 147 145 142 141 138 135 133 131 130 127 124 121 119 116 115 113 109 108 107 105 105 105 104 103 101 99 98 98 97 97 97 97 97 97 98 99 100 100 100 100 100 101 103 104 104 103 101 100 100 99 97 96 94 94 93 92 93 94 97 97 97 97 97 98 99 99 98 97 96 94 94 93 91 90 88 86
151 150 151 151 151 149 148 149 150 149 147 145 143 140 137 135 134 131 129 125 122 121 118 116 114 111 109 108 106 106 106 105 104 102 101 100 99 98 99 99 99 99 99 99 99 99 99 98 97 97 99 102 104 104 104 102 101 101 100 99 99 96 95 94 93 94 95 96 97 97 98 98 98 99 99 98 97 97 96 95 93 91 90 88 86
153 153 153 152 152 151 151 151 152 151 149 148 146 143 140 138 137 134 131 127 125 123 120 118 116 113 112 110 107 106 107 105 104 103 102 102 101 100 99 99 100 100 100 100 99 99 98 97 96 96 98 100 102 103 105 103 102 102 102 101 102 100 98 96 95 96 97 97 97 97 97 97 98 98 99 98 97 97 96 95 93 92 90 88 85
155 154 154 155 154 154 154 153 153 153 152 151 148 145 143 141 140 136 134 130 129 126 123 121 118 115 114 112 110 109 108 106 105 103 103 104 102 101 101 100 100 100 100 100 99 98 97 96 96 96 96 98 99 101 102 101 101 103 103 104 105 103 98 96 96 97 98 98 98 97 96 96 95 96 98 98 98 97 96 94 93 91 90 88 86
158 156 157 158 157 155 156 156 155 155 154 154 151 148 146 144 143 139 137 134 132 130 126 124 120 118 117 114 113 111 110 108 105 103 104 104 103 102 102 102 102 101 101 100 100 99 98 96 96 97 96 96 98 99 101 99 99 101 102 105 107 104 99 96 97 97 98 98 97 96 95 94 94 94 96 97 97 96 95 93 92 91 90 88 85
161 159 160 159 158 157 158 159 158 157 156 155 153 151 150 148 146 143 140 138 135 134 131 127 124 122 119 116 115 114 113 109 105 104 104 104 102 103 103 102 101 101 101 101 102 101 99 96 96 96 94 94 96 97 99 98 97 99 102 105 106 105 100 98 97 98 98 98 97 96 95 94 93 92 93 94 95 95 93 92 91 89 88 86 83
164 162 163 161 161 161 160 160 160 158 157 157 156 154 153 151 149 147 144 141 139 137 134 132 128 125 122 118 117 116 115 111 107 106 106 105 103 105 103 101 101 100 101 101 102 101 99 97 95 95 94 93 94 95 96 96 96 97 101 104 106 105 101 99 98 99 99 98 98 97 95 94 93 92 91 92 93 94 93 92 90 88 85 83 81
166 164 165 164 163 163 162 162 162 161 159 159 159 157 155 154 152 149 146 145 143 140 138 135 131 128 125 121 119 118 116 112 109 109 109 108 106 108 105 102 101 100 101 101 101 102 101 100 98 96 96 96 95 95 96 97 97 97 100 103 104 105 102 100 99 100 100 100 99 98 96 94 93 92 90 90 91 92 91 90 89 87 84 81 79
169 167 167 166 165 165 163 164 165 162 161 161 161 159 158 156 155 152 149 147 146 143 140 138 135 131 128 125 123 121 117 113 112 112 112 109 108 109 108 106 104 102 102 102 102 103 102 102 101 100 99 99 99 98 99 101 101 99 102 103 103 105 104 101 101 100 100 100 100 99 97 96 94 92 90 89 88 88 87 87 86 84 82 80 78
171 169 168 168 166 166 165 165 167 164 162 163 162 161 160 159 157 154 152 149 147 146 142 141 140 135 131 129 127 125 121 118 117 116 114 110 108 109 109 108 108 106 104 103 103 103 103 103 103 103 101 101 101 100 99 102 104 100 102 104 103 105 106 103 101 100 100 100 101 100 98 97 94 92 90 89 87 86 84 83 82 81 80 78 77
173 172 170 169 168 168 167 167 169 168 164 164 163 162 162 161 159 156 154 152 150 149 145 144 143 138 134 131 130 130 126 123 122 120 116 112 110 110 111 110 109 109 106 103 102 102 103 104 106 104 103 102 102 101 97 99 104 102 102 104 104 105 108 106 102 100 99 100 102 100 98 96 94 91 89 88 86 84 82 80 79 77 76 76 75
174 175 172 171 171 171 170 170 171 171 168 167 166 165 164 161 160 158 156 154 152 150 148 147 145 141 137 132 131 130 125 124 124 122 119 115 114 112 114 113 111 112 110 106 103 102 102 104 105 103 104 105 104 102 97 97 101 103 104 103 102 105 110 109 103 101 99 98 100 99 97 95 93 91 88 87 84 81 78 75 74 74 73 73 71
175 176 174 173 173 173 173 172 172 173 171 170 168 167 166 163 162 160 158 156 153 152 152 151 147 143 140 134 132 129 124 124 124 124 122 119 117 114 115 116 116 114 111 109 106 104 103 104 105 104 105 104 106 105 99 98 98 101 105 100 98 102 109 112 105 102 100 97 98 97 97 94 92 90 88 85 82 78 74 70 69 69 68 66 64
177 178 177 176 174 175 176 174 173 173 172 172 169 168 168 165 165 162 160 157 153 153 155 154 150 145 143 139 135 131 127 127 125 125 123 121 118 114 115 117 117 115 111 110 109 107 104 105 107 105 104 102 107 107 101 103 97 97 102 97 96 100 103 110 111 105 99 97 95 94 94 92 90 89 87 84 79 74 70 66 66 65 63 62 59
179 179 179 178 176 176 178 175 173 173 173 173 170 169 168 167 166 164 161 158 154 155 155 154 153 149 147 144 140 135 131 130 128 127 124 122 119 117 116 117 118 116 114 112 111 110 106 107 109 108 107 104 107 107 104 108 102 97 100 96 96 100 98 102 109 108 100 96 93 89 91 91 89 89 87 81 74 68 64 63 64 63 61 60 57
180 181 182 180 178 178 178 176 174 174 174 173 171 169 168 167 167 165 164 161 158 159 158 157 158 154 151 148 143 139 136 133 131 129 126 123 121 119 118 118 118 116 116 114 111 111 109 110 112 111 110 107 106 105 105 110 106 101 103 99 94 97 98 97 102 109 104 96 93 88 87 88 85 86 84 76 69 62 60 63 63 62 61 60 58
182 183 184 182 181 180 180 178 176 175 174 172 172 171 168 167 168 168 166 163 161 163 161 159 159 155 152 150 145 142 139 136 134 132 128 126 124 122 119 117 117 115 114 113 111 111 110 112 115 113 110 109 108 108 109 110 109 109 108 102 94 92 96 98 98 103 103 98 99 95 88 84 79 80 80 72 67 60 60 67 65 64 65 64 61
185 185 185 184 183 182 181 180 178 177 175 173 172 171 169 168 170 169 167 165 164 164 161 159 158 153 150 150 147 145 142 139 137 134 131 128 124 122 120 117 116 113 111 110 109 109 109 110 114 115 111 109 109 113 114 108 107 114 111 102 100 96 93 99 98 96 98 99 102 101 92 86 78 76 75 67 68 69 68 72 71 69 70 70 68
187 186 186 187 185 183 182 182 181 179 176 174 172 172 170 170 171 170 168 167 166 164 161 160 160 156 151 150 150 148 145 142 139 137 134 129 126 123 120 119 117 113 110 110 110 109 108 110 114 115 113 109 107 111 112 104 105 110 105 99 103 101 93 97 100 95 97 94 97 105 98 87 82 79 75 69 70 76 79 75 74 76 76 75 74
188 187 188 189 187 185 184 183 183 180 178 175 174 173 173 172 172 171 170 168 166 164 162 163 164 160 156 153 152 150 146 144 141 138 136 132 128 126 122 120 119 114 112 112 112 110 109 110 113 113 113 110 107 111 111 107 109 108 102 99 100 101 98 98 100 95 96 93 90 99 99 87 86 83 80 79 74 76 81 77 72 79 81 76 74
189 189 190 190 189 187 185 184 184 182 180 178 176 176 175 174 173 173 172 168 167 167 165 166 166 162 159 157 154 151 148 146 143 139 136 133 131 128 124 122 120 116 114 114 113 112 111 111 113 113 113 112 109 113 114 108 109 110 106 103 98 99 99 97 100 96 95 96 84 83 92 92 91 88 84 83 80 78 80 79 75 79 81 78 75
190 191 191 191 191 189 187 186 185 184 183 181 180 179 178 176 175 175 172 169 170 170 167 166 165 163 161 159 156 152 151 148 146 142 137 135 133 129 126 123 121 118 116 114 114 113 113 112 113 114 115 114 110 114 116 109 109 112 108 106 104 100 94 91 100 99 96 99 88 81 89 94 94 93 90 85 84 83 82 84 84 80 81 81 77
190 191 192 193 193 191 189 188 187 186 186 183 183 183 180 177 176 176 174 172 172 171 168 166 166 164 162 160 158 155 153 151 150 147 141 138 136 131 128 125 123 121 118 117 116 116 115 114 114 114 115 114 111 113 115 110 110 112 108 106 104 99 93 92 97 99 95 98 101 93 94 100 99 95 93 89 88 90 92 95 94 86 84 84 79
191 192 193 194 195 193 190 190 188 188 188 186 185 185 182 179 177 176 176 175 173 173 169 167 167 166 164 162 160 158 156 154 153 151 145 142 139 135 132 130 127 124 121 119 118 116 115 114 113 114 115 115 114 113 113 112 112 113 110 104 98 96 98 100 96 93 91 96 101 99 102 103 99 96 95 92 93 98 100 98 96 92 90 86 80
193 193 194 195 196 194 192 191 191 190 189 188 187 187 185 182 180 178 179 178 177 176 172 169 169 168 166 165 162 161 159 157 155 154 151 146 144 141 138 136 132 128 125 121 118 117 116 114 113 114 115 116 117 114 113 112 107 110 114 106 97 97 99 97 92 86 86 95 95 97 110 107 96 99 103 97 97 101 102 97 94 93 91 86 81
194 193 194 195 196 195 194 193 193 193 191 189 190 189 188 186 184 182 183 182 180 179 176 173 171 170 169 167 165 164 162 160 158 157 156 153 150 148 145 142 137 133 131 126 122 120 119 116 115 116 117 115 116 115 114 111 104 108 113 107 98 97 98 94 89 84 85 94 96 97 113 115 102 102 105 100 99 102 103 99 96 93 88 83 80
195 194 195 196 196 196 196 196 195 195 193 192 192 192 191 189 187 186 186 186 183 181 180 176 174 172 171 169 167 167 166 164 164 162 161 159 157 154 151 148 143 141 136 131 128 124 120 118 117 118 118 115 116 117 115 110 105 107 109 107 104 99 98 97 93 90 88 92 98 98 106 115 108 104 105 101 100 105 106 100 97 94 86 80 78
197 196 196 197 198 197 197 198 197 198 196 194 194 194 193 191 189 188 189 189 188 185 182 180 178 176 174 173 171 170 170 169 169 168 166 165 163 160 157 154 150 147 141 136 133 130 125 122 122 120 118 117 118 118 116 112 108 106 107 109 108 99 96 97 93 93 92 91 95 93 93 103 106 104 105 103 102 106 108 102 100 97 86 79 76
199 198 197 198 199 199 198 199 199 200 199 197 196 195 195 194 192 190 190 191 190 187 183 182 182 180 178 179 177 174 173 174 174 172 170 169 168 165 162 159 156 152 147 141 137 135 133 129 126 125 122 119 120 118 117 116 110 107 106 107 109 103 98 100 100 101 100 94 93 90 89 97 105 103 101 103 104 105 105 103 103 97 87 81 78
199 199 198 198 200 200 200 200 201 201 201 199 198 197 196 196 195 192 190 191 191 189 186 184 185 184 183 183 181 178 177 177 177 176 174 173 172 170 167 163 161 158 154 149 143 142 142 136 129 129 128 123 121 121 121 120 114 109 104 102 106 106 103 106 108 109 106 97 94 96 94 97 104 105 102 104 104 102 101 100 97 93 87 82 78